Tracking 30923 objects as of 1-Jul-2025
HD Live streaming from Space Station
objects crossing your sky now

DELTA 1 DEB

Track DELTA 1 DEB now!
10-day predictions


NORAD ID: 7088
Int'l Code: 1973-086CG
Perigee: 1,130.5 km
Apogee: 1,532.7 km
Inclination: 102.4 °
Period: 112.1 minutes
Semi major axis: 7702 km
RCS: 0.0368 m2 (small)
Launch date: November 6, 1973
Source: United States (US)
Launch site: AIR FORCE WESTERN TEST RANGE (AFWTR)

Note: This is SATELLITE DEBRIS
Your satellite tracking list
Your tracking list is empty




NASA's NSSDC Master Catalog

Two Line Element Set (TLE):
1 07088U 73086CG  25181.93323874  .00000314  00000-0  13086-2 0  9991
2 07088 102.4123  68.6455 0261062  79.4510 305.8768 12.84247715407453
Source of the keplerian elements: AFSPC